Location: Unspecified
(22.6800°N, 112.2000°E)
Time: 13:02:38
(UTC+08:00)

Vanguard 2 - All Passes

Search period start: 31 July 2021 00:00
Search period end: 10 August 2021 00:00
Orbit: 552 x 2937 km, 32.9° (Epoch: 30 July)

Date Brightness Start Highest point End Pass type
(mag) Time Alt. Az. Time Alt. Az. Time Alt. Az.
31 Jul - 03:51:43 10° WSW 03:55:41 79° SSE 03:59:58 10° ENE visible
31 Jul - 06:00:32 10° WNW 06:04:24 31° N 06:09:38 10° NE daylight
31 Jul - 08:08:48 10° NW 08:14:13 39° NNE 08:22:48 10° E daylight
31 Jul - 10:16:24 10° WNW 10:24:15 83° NNE 10:37:47 10° ESE daylight
31 Jul - 12:25:18 10° W 12:35:17 45° SSW 12:50:12 10° SE daylight
31 Jul - 14:39:49 10° WSW 14:47:46 16° SW 14:56:51 10° S daylight
01 Aug - 02:02:09 10° SSW 02:05:23 19° SSE 02:08:15 10° ESE night (unlit)
01 Aug - 04:09:32 10° WSW 04:13:26 61° NNW 04:17:44 10° ENE visible
01 Aug - 06:18:38 10° WNW 06:22:30 28° N 06:27:43 10° ENE daylight
01 Aug - 08:26:31 10° NW 08:32:12 45° NNE 08:41:28 10° E daylight
01 Aug - 10:34:08 10° WNW 10:42:08 79° SSW 10:55:52 10° ESE daylight
01 Aug - 12:43:45 10° W 12:53:23 34° SSW 13:07:02 10° SSE daylight
01 Aug - 15:04:38 10° SW 15:06:15 10° SSW 15:07:54 10° SSW daylight
02 Aug - 02:18:57 10° SW 02:23:09 33° SSE 02:26:43 10° E visible
02 Aug - 04:27:33 10° W 04:31:17 39° NNW 04:35:27 10° NE visible
02 Aug - 06:36:38 10° NW 06:40:35 27° N 06:45:59 10° ENE daylight
02 Aug - 08:44:11 10° WNW 08:50:07 56° NNE 09:00:03 10° E daylight
02 Aug - 10:51:58 10° WNW 11:00:03 62° SSW 11:13:38 10° SE daylight
02 Aug - 13:02:43 10° W 13:11:34 25° SSW 13:23:21 10° SSE daylight
03 Aug - 00:31:35 10° SSE 00:32:11 10° SSE 00:32:44 10° SSE night (unlit)
03 Aug - 02:36:19 10° SW 02:40:52 59° SSE 02:44:44 10° ENE visible
03 Aug - 04:45:44 10° WNW 04:49:12 29° NNW 04:53:10 10° NE visible
03 Aug - 06:54:29 10° NW 06:58:37 29° NNE 07:04:26 10° ENE daylight
03 Aug - 09:01:49 10° WNW 09:07:58 71° NNE 09:18:29 10° ESE daylight
03 Aug - 11:10:00 10° W 11:18:03 47° SSW 11:31:03 10° SE daylight
03 Aug - 13:22:34 10° WSW 13:29:52 17° SSW 13:38:50 10° S daylight
04 Aug - 00:46:09 10° SSW 00:50:09 18° SSE 00:53:20 10° ESE night (unlit)
04 Aug - 02:54:02 10° WSW 02:58:35 80° NNW 03:02:30 10° ENE visible
04 Aug - 05:03:57 10° WNW 05:07:13 24° N 05:10:59 10° NE visible
04 Aug - 07:12:13 10° NW 07:16:36 34° NNE 07:22:59 10° E daylight
04 Aug - 09:19:30 10° WNW 09:25:47 89° SSW 09:36:40 10° ESE daylight
04 Aug - 11:28:16 10° W 11:36:07 35° SSW 11:48:04 10° SSE daylight
04 Aug - 13:44:55 10° SW 13:48:20 11° SSW 13:52:01 10° SSW daylight
05 Aug - 01:02:48 10° SSW 01:08:03 30° SSE 01:11:55 10° E night (unlit)
05 Aug - 03:12:02 10° W 03:16:21 49° NNW 03:20:10 10° NE visible
05 Aug - 05:22:05 10° NW 05:25:16 22° N 05:28:59 10° NE visible
05 Aug - 07:29:52 10° NW 07:34:30 42° NNE 07:41:31 10° E daylight
05 Aug - 09:37:15 10° WNW 09:43:38 67° SSW 09:54:34 10° SE daylight
05 Aug - 11:46:59 10° W 11:54:16 25° SSW 12:04:35 10° SSE daylight
05 Aug - 23:13:55 10° S 23:16:30 12° SSE 23:18:45 10° SE night (unlit)
06 Aug - 01:20:03 10° SW 01:25:53 49° SSE 01:30:01 10° ENE night (unlit)
06 Aug - 03:30:15 10° W 03:34:10 33° NNW 03:37:47 10° NE visible
06 Aug - 05:40:04 10° NW 05:43:19 22° N 05:47:12 10° ENE visible
06 Aug - 07:47:29 10° NW 07:52:19 56° NNE 07:59:58 10° E daylight
06 Aug - 09:55:10 10° W 10:01:34 49° SSW 10:12:08 10° SE daylight
06 Aug - 12:06:29 10° WSW 12:12:33 17° SSW 12:20:19 10° S daylight
06 Aug - 23:29:08 10° SSW 23:34:36 19° SSE 23:38:41 10° ESE night (unlit)
07 Aug - 01:37:42 10° WSW 01:43:39 80° SSE 01:47:51 10° ENE night (unlit)
07 Aug - 03:48:34 10° WNW 03:52:05 25° NNW 03:55:26 10° NE visible
07 Aug - 05:57:52 10° NW 06:01:19 25° NNE 06:05:34 10° ENE daylight
07 Aug - 08:05:06 10° WNW 08:10:06 77° NNE 08:18:13 10° ESE daylight
07 Aug - 10:13:19 10° W 10:19:33 35° SSW 10:29:18 10° SSE daylight
07 Aug - 12:28:19 10° SW 12:30:57 11° SSW 12:33:50 10° SSW daylight
07 Aug - 23:45:41 10° SSW 23:52:38 30° SSE 23:57:20 10° E night (unlit)
08 Aug - 01:55:39 10° WSW 02:01:24 66° NNW 02:05:31 10° ENE night (unlit)
08 Aug - 04:06:53 10° WNW 04:10:04 21° N 04:13:12 10° NE visible
08 Aug - 06:15:33 10° NW 06:19:15 30° NNE 06:24:01 10° E daylight
08 Aug - 08:22:48 10° WNW 08:27:52 76° SSW 08:36:12 10° ESE daylight
08 Aug - 10:31:53 10° W 10:37:39 24° SSW 10:45:58 10° SSE daylight
08 Aug - 21:55:51 10° S 22:00:24 14° SSE 22:04:10 10° SE visible
09 Aug - 00:02:49 10° SW 00:10:34 45° SSE 00:15:31 10° E night (unlit)
09 Aug - 02:13:52 10° W 02:19:09 44° NNW 02:23:07 10° NE visible
09 Aug - 04:25:05 10° NW 04:28:06 20° N 04:31:08 10° NE visible
09 Aug - 06:33:08 10° NW 06:37:06 41° NNE 06:42:26 10° E daylight
09 Aug - 08:40:38 10° WNW 08:45:43 52° SSW 08:53:52 10° SE daylight
09 Aug - 10:51:12 10° WSW 10:55:51 16° SSW 11:01:49 10° S daylight
09 Aug - 22:11:13 10° SSW 22:18:37 21° SSE 22:23:58 10° ESE visible
